| time (UTC) | temp F | wind direction | speed MPH | gust MPH | rain 1hr in | rain 24hr in | rain mn in | humidity % | barometer mb |
| 20260509075232 | 70 | 86 | 4.0 | 0.0 | 0.00 | 0.00 | 0.00 | 86 | |
| 20260509074232 | 70 | 20 | 2.0 | 0.0 | 0.00 | 0.00 | 0.00 | 86 | |
| 20260509073232 | 70 | 20 | 2.0 | 0.0 | 0.00 | 0.00 | 0.00 | 86 | |
| 20260509072232 | 69 | 45 | 5.0 | 0.0 | 0.00 | 0.00 | 0.00 | 86 | |
| 20260509071232 | 69 | 41 | 2.0 | 0.0 | 0.00 | 0.00 | 0.00 | 84 | |
| 20260509070232 | 69 | 41 | 2.0 | 0.0 | 0.00 | 0.00 | 0.00 | 84 | |
| 20260509065232 | 70 | 89 | 2.0 | 0.0 | 0.00 | 0.00 | 0.00 | 83 | |
| 20260509064232 | 70 | 87 | 3.0 | 0.0 | 0.00 | 0.00 | 0.00 | 83 | |
| 20260509063232 | 70 | 87 | 3.0 | 0.0 | 0.00 | 0.00 | 0.00 | 83 | |
| 20260509062232 | 69 | 77 | 4.0 | 0.0 | 0.00 | 0.00 | 0.00 | 83 | |
| 20260509061232 | 69 | 95 | 1.0 | 0.0 | 0.00 | 0.00 | 0.00 | 83 | |
| 20260509060232 | 69 | 95 | 1.0 | 0.0 | 0.00 | 0.00 | 0.00 | 83 | |
| 20260509055232 | 70 | 68 | 2.0 | 0.0 | 0.00 | 0.00 | 0.00 | 81 | |
| 20260509054232 | 71 | 71 | 1.0 | 0.0 | 0.00 | 0.00 | 0.00 | 78 | |
| 20260509053232 | 71 | 71 | 1.0 | 0.0 | 0.00 | 0.00 | 0.00 | 78 | |
| 20260509052232 | 72 | 109 | 1.0 | 0.0 | 0.00 | 0.00 | 0.00 | 75 | |
| 20260509051232 | 72 | 185 | 5.0 | 0.0 | 0.00 | 0.00 | 0.00 | 76 | |
| 20260509050232 | 72 | 185 | 5.0 | 0.0 | 0.00 | 0.00 | 0.00 | 76 | |
| 20260509045232 | 71 | 45 | 1.0 | 0.0 | 0.00 | 0.00 | 0.00 | 76 | |
| 20260509044232 | 71 | 76 | 3.0 | 0.0 | 0.00 | 0.00 | 0.00 | 76 | |
| 20260509043253 | 71 | 76 | 3.0 | 0.0 | 0.00 | 0.00 | 0.00 | 76 | |
| 20260509042232 | 72 | 29 | 2.0 | 0.0 | 0.00 | 0.00 | 0.00 | 74 | |
| 20260509041232 | 72 | 6 | 1.0 | 0.0 | 0.00 | 0.00 | 0.00 | 74 | |
| 20260509040232 | 72 | 6 | 1.0 | 0.0 | 0.00 | 0.00 | 0.00 | 74 | |
| 20260509035253 | 72 | 344 | 7.0 | 0.0 | 0.00 | 0.00 | 0.00 | 74 | |
| 20260509034232 | 73 | 5 | 0.0 | 0.0 | 0.00 | 0.00 | 0.00 | 73 | |
| 20260509033232 | 73 | 5 | 0.0 | 0.0 | 0.00 | 0.00 | 0.00 | 73 | |
| 20260509032232 | 72 | 115 | 0.0 | 0.0 | 0.00 | 0.00 | 0.00 | 73 | |
| 20260509031232 | 72 | 345 | 1.0 | 0.0 | 0.00 | 0.00 | 0.00 | 73 | |
| 20260509030232 | 72 | 345 | 1.0 | 0.0 | 0.00 | 0.00 | 0.00 | 73 | |
| 20260509025253 | 72 | 11 | 2.0 | 0.0 | 0.00 | 0.00 | 0.00 | 73 | |
| 20260509022232 | 72 | 15 | 3.0 | 0.0 | 0.00 | 0.00 | 0.00 | 72 | |
| 20260509021232 | 72 | 46 | 3.0 | 0.0 | 0.00 | 0.00 | 0.00 | 72 | |
| 20260509020238 | 72 | 46 | 3.0 | 0.0 | 0.00 | 0.00 | 0.00 | 72 | |
| 20260509015232 | 72 | 57 | 3.0 | 0.0 | 0.00 | 0.00 | 0.00 | 70 | |
| 20260509014232 | 73 | 14 | 2.0 | 0.0 | 0.00 | 0.00 | 0.00 | 69 | |
| 20260509013232 | 73 | 14 | 2.0 | 0.0 | 0.00 | 0.00 | 0.00 | 69 | |
| 20260509012232 | 73 | 37 | 3.0 | 0.0 | 0.00 | 0.00 | 0.00 | 68 | |
| 20260509011232 | 73 | 30 | 7.0 | 0.0 | 0.00 | 0.00 | 0.00 | 67 | |
| 20260509010232 | 73 | 30 | 7.0 | 0.0 | 0.00 | 0.00 | 0.00 | 67 | |
| 20260509005232 | 73 | 35 | 3.0 | 0.0 | 0.00 | 0.00 | 0.00 | 67 | |
| 20260509002232 | 74 | 50 | 8.0 | 0.0 | 0.00 | 0.00 | 0.00 | 64 | |
| 20260509001232 | 74 | 11 | 5.0 | 0.0 | 0.00 | 0.00 | 0.00 | 63 | |
| 20260509000233 | 74 | 11 | 5.0 | 0.0 | 0.00 | 0.00 | 0.00 | 63 | |
| 20260508235232 | 75 | 58 | 3.0 | 0.0 | 0.00 | 0.00 | 0.00 | 64 | |
| 20260508234232 | 75 | 50 | 5.0 | 0.0 | 0.00 | 0.00 | 0.00 | 62 | |
| 20260508233232 | 75 | 50 | 5.0 | 0.0 | 0.00 | 0.00 | 0.00 | 62 | |
| 20260508232232 | 75 | 21 | 6.0 | 0.0 | 0.00 | 0.00 | 0.00 | 63 | |
| 20260508231232 | 76 | 62 | 4.0 | 0.0 | 0.00 | 0.00 | 0.00 | 61 | |
| 20260508230232 | 76 | 62 | 4.0 | 0.0 | 0.00 | 0.00 | 0.00 | 61 | |
| 20260508225232 | 76 | 82 | 5.0 | 0.0 | 0.00 | 0.00 | 0.00 | 60 | |
| 20260508224232 | 77 | 35 | 3.0 | 0.0 | 0.00 | 0.00 | 0.00 | 58 | |
| 20260508223253 | 77 | 35 | 3.0 | 0.0 | 0.00 | 0.00 | 0.00 | 58 | |
| 20260508222232 | 76 | 83 | 5.0 | 0.0 | 0.00 | 0.00 | 0.00 | 60 | |
| 20260508221253 | 77 | 42 | 5.0 | 0.0 | 0.00 | 0.00 | 0.00 | 59 | |
| 20260508220232 | 77 | 42 | 5.0 | 0.0 | 0.00 | 0.00 | 0.00 | 59 | |
| 20260508215232 | 76 | 38 | 7.0 | 0.0 | 0.00 | 0.00 | 0.00 | 59 | |
| 20260508214232 | 76 | 342 | 6.0 | 0.0 | 0.00 | 0.00 | 0.00 | 57 | |
| 20260508213232 | 76 | 342 | 6.0 | 0.0 | 0.00 | 0.00 | 0.00 | 57 | |
| 20260508212232 | 76 | 36 | 4.0 | 0.0 | 0.00 | 0.00 | 0.00 | 60 | |
| 20260508211232 | 76 | 47 | 5.0 | 0.0 | 0.00 | 0.00 | 0.00 | 59 | |
| 20260508210232 | 76 | 47 | 5.0 | 0.0 | 0.00 | 0.00 | 0.00 | 59 | |
| 20260508205232 | 74 | 65 | 3.0 | 0.0 | 0.00 | 0.00 | 0.00 | 61 | |
| 20260508204232 | 75 | 62 | 5.0 | 0.0 | 0.00 | 0.00 | 0.00 | 60 | |
| 20260508203232 | 75 | 62 | 5.0 | 0.0 | 0.00 | 0.00 | 0.00 | 60 | |
| 20260508202232 | 75 | 93 | 7.0 | 0.0 | 0.00 | 0.00 | 0.00 | 59 | |
| 20260508201232 | 76 | 90 | 3.0 | 0.0 | 0.00 | 0.00 | 0.00 | 56 | |
| 20260508200232 | 76 | 90 | 3.0 | 0.0 | 0.00 | 0.00 | 0.00 | 56 | |
| 20260508195253 | 77 | 65 | 1.0 | 0.0 | 0.00 | 0.00 | 0.00 | 57 | |
| 20260508194253 | 77 | 26 | 7.0 | 0.0 | 0.00 | 0.00 | 0.00 | 54 | |
| 20260508193232 | 77 | 26 | 7.0 | 0.0 | 0.00 | 0.00 | 0.00 | 54 | |
| 20260508192232 | 78 | 72 | 4.0 | 0.0 | 0.00 | 0.00 | 0.00 | 54 | |
| 20260508191232 | 78 | 89 | 4.0 | 0.0 | 0.00 | 0.00 | 0.00 | 53 | |
| 20260508190232 | 78 | 89 | 4.0 | 0.0 | 0.00 | 0.00 | 0.00 | 53 | |
| 20260508185232 | 77 | 2 | 2.0 | 0.0 | 0.00 | 0.00 | 0.00 | 54 | |
| 20260508184232 | 76 | 68 | 6.0 | 0.0 | 0.00 | 0.00 | 0.00 | 53 | |
| 20260508183232 | 76 | 68 | 6.0 | 0.0 | 0.00 | 0.00 | 0.00 | 53 | |
| 20260508182232 | 76 | 37 | 4.0 | 0.0 | 0.00 | 0.00 | 0.00 | 52 | |
| 20260508181253 | 75 | 76 | 2.0 | 0.0 | 0.00 | 0.00 | 0.00 | 56 | |
| 20260508180232 | 75 | 76 | 2.0 | 0.0 | 0.00 | 0.00 | 0.00 | 56 | |
| 20260508175232 | 74 | 51 | 5.0 | 0.0 | 0.00 | 0.00 | 0.00 | 58 | |
| 20260508174232 | 73 | 57 | 1.0 | 0.0 | 0.00 | 0.00 | 0.00 | 58 | |
| 20260508173253 | 73 | 57 | 1.0 | 0.0 | 0.00 | 0.00 | 0.00 | 58 | |
| 20260508172253 | 71 | 354 | 4.0 | 0.0 | 0.00 | 0.00 | 0.00 | 58 | |
| 20260508171232 | 70 | 71 | 2.0 | 0.0 | 0.00 | 0.00 | 0.00 | 58 | |
| 20260508170232 | 70 | 71 | 2.0 | 0.0 | 0.00 | 0.00 | 0.00 | 58 | |
| 20260508165232 | 70 | 33 | 5.0 | 0.0 | 0.00 | 0.00 | 0.00 | 57 | |
| 20260508162236 | 68 | 40 | 2.0 | 0.0 | 0.00 | 0.00 | 0.00 | 64 | |
| 20260508161232 | 68 | 40 | 2.0 | 0.0 | 0.00 | 0.00 | 0.00 | 64 | |
| 20260508160232 | 68 | 40 | 2.0 | 0.0 | 0.00 | 0.00 | 0.00 | 64 | |
| 20260508155232 | 67 | 37 | 5.0 | 0.0 | 0.00 | 0.00 | 0.00 | 64 | |
| 20260508154232 | 67 | 33 | 2.0 | 0.0 | 0.00 | 0.00 | 0.00 | 65 | |
| 20260508153232 | 67 | 33 | 2.0 | 0.0 | 0.00 | 0.00 | 0.00 | 65 | |
| 20260508152232 | 68 | 80 | 3.0 | 0.0 | 0.00 | 0.00 | 0.00 | 66 | |
| 20260508151232 | 66 | 38 | 3.0 | 0.0 | 0.00 | 0.00 | 0.00 | 68 | |
| 20260508150253 | 66 | 38 | 3.0 | 0.0 | 0.00 | 0.00 | 0.00 | 68 | |
| 20260508145253 | 65 | 25 | 4.0 | 0.0 | 0.00 | 0.00 | 0.00 | 74 | |
| 20260508144232 | 64 | 17 | 1.0 | 0.0 | 0.00 | 0.00 | 0.00 | 76 | |
| 20260508143232 | 64 | 17 | 1.0 | 0.0 | 0.00 | 0.00 | 0.00 | 76 | |
| 20260508142232 | 64 | 6 | 3.0 | 0.0 | 0.00 | 0.00 | 0.00 | 76 | |
| 20260508141253 | 63 | 38 | 1.0 | 0.0 | 0.00 | 0.00 | 0.00 | 79 | |
| 20260508140232 | 63 | 38 | 1.0 | 0.0 | 0.00 | 0.00 | 0.00 | 79 | |
| 20260508135232 | 63 | 330 | 1.0 | 0.0 | 0.00 | 0.00 | 0.00 | 82 | |
| 20260508134232 | 62 | 329 | 1.0 | 0.0 | 0.00 | 0.00 | 0.00 | 85 | |
| 20260508133232 | 62 | 329 | 1.0 | 0.0 | 0.00 | 0.00 | 0.00 | 85 | |
| 20260508132232 | 61 | 35 | 1.0 | 0.0 | 0.00 | 0.00 | 0.00 | 85 | |
| 20260508131232 | 61 | 16 | 1.0 | 0.0 | 0.00 | 0.00 | 0.00 | 85 | |
| 20260508130232 | 61 | 16 | 1.0 | 0.0 | 0.00 | 0.00 | 0.00 | 85 | |
| 20260508125232 | 61 | 26 | 1.0 | 0.0 | 0.00 | 0.00 | 0.00 | 87 | |
| 20260508124232 | 61 | 36 | 3.0 | 0.0 | 0.00 | 0.00 | 0.00 | 88 | |
| 20260508123253 | 61 | 36 | 3.0 | 0.0 | 0.00 | 0.00 | 0.00 | 88 | |
| 20260508122232 | 60 | 5 | 4.0 | 0.0 | 0.00 | 0.00 | 0.00 | 94 | |
| 20260508121232 | 60 | 156 | 1.0 | 0.0 | 0.00 | 0.00 | 0.00 | 97 | |
| 20260508120232 | 60 | 156 | 1.0 | 0.0 | 0.00 | 0.00 | 0.00 | 97 | |
| 20260508115232 | 60 | 135 | 0.0 | 0.0 | 0.00 | 0.00 | 0.00 | 97 | |
| 20260508114232 | 59 | 22 | 2.0 | 0.0 | 0.00 | 0.00 | 0.00 | 98 | |
| 20260508113232 | 59 | 22 | 2.0 | 0.0 | 0.00 | 0.00 | 0.00 | 98 | |
| 20260508112232 | 59 | 82 | 1.0 | 0.0 | 0.00 | 0.00 | 0.00 | 98 | |
| 20260508111232 | 59 | 2 | 4.0 | 0.0 | 0.00 | 0.00 | 0.00 | 91 | |
| 20260508110232 | 59 | 2 | 4.0 | 0.0 | 0.00 | 0.00 | 0.00 | 91 | |
| 20260508105232 | 60 | 108 | 0.0 | 0.0 | 0.00 | 0.00 | 0.00 | 89 | |
| 20260508104232 | 60 | 46 | 4.0 | 0.0 | 0.00 | 0.00 | 0.00 | 86 | |
| 20260508103232 | 60 | 46 | 4.0 | 0.0 | 0.00 | 0.00 | 0.00 | 86 | |
| 20260508102253 | 61 | 71 | 2.0 | 0.0 | 0.00 | 0.00 | 0.00 | 83 | |
| 20260508101232 | 61 | 28 | 1.0 | 0.0 | 0.00 | 0.00 | 0.00 | 83 | |
| 20260508100232 | 61 | 28 | 1.0 | 0.0 | 0.00 | 0.00 | 0.00 | 83 | |
| 20260508095232 | 61 | 49 | 1.0 | 0.0 | 0.00 | 0.00 | 0.00 | 85 | |
| 20260508094232 | 61 | 23 | 3.0 | 0.0 | 0.00 | 0.00 | 0.00 | 87 | |
| 20260508093232 | 61 | 23 | 3.0 | 0.0 | 0.00 | 0.00 | 0.00 | 87 | |
| 20260508092232 | 61 | 53 | 2.0 | 0.0 | 0.00 | 0.00 | 0.00 | 86 | |
| 20260508091232 | 60 | 168 | 0.0 | 0.0 | 0.00 | 0.00 | 0.00 | 86 | |
| 20260508090232 | 60 | 168 | 0.0 | 0.0 | 0.00 | 0.00 | 0.00 | 86 | |
| 20260508085232 | 60 | 13 | 4.0 | 0.0 | 0.00 | 0.00 | 0.00 | 84 | |
| 20260508084232 | 61 | 142 | 1.0 | 0.0 | 0.00 | 0.00 | 0.00 | 84 | |
| 20260508083253 | 61 | 142 | 1.0 | 0.0 | 0.00 | 0.00 | 0.00 | 84 | |
| 20260508082232 | 61 | 3 | 7.0 | 0.0 | 0.00 | 0.00 | 0.00 | 80 | |
| 20260508081232 | 63 | 41 | 3.0 | 0.0 | 0.00 | 0.00 | 0.00 | 72 | |
| 20260508080232 | 63 | 41 | 3.0 | 0.0 | 0.00 | 0.00 | 0.00 | 72 |